Temperature
17 17 16 16 16 16 16 17 17 17 17 17 17 17 17 17 17 17 17 17 17 17 17 17 16 16 16 16 16 16 16 16 16 16 16 16 16 16 16 15 15 15 15
17 17 16 16 16 16 16 16 16 17 17 17 17 17 17 17 17 17 17 17 17 16 16 16 16 16 16 16 16 16 16 16 16 16 16 16 16 15 15 15 15 15 15
17 16 16 16 16 16 16 16 16 16 16 17 17 17 17 16 16 16 16 16 16 16 16 16 16 16 16 16 16 16 16 16 16 16 15 16 15 15 15 15 15 15 15
16 16 16 16 16 16 16 16 16 16 16 16 16 16 16 16 16 16 16 16 16 16 16 16 16 16 16 16 16 16 16 16 16 15 15 15 15 15 15 15 15 15 15
16 16 16 15 16 16 16 16 16 16 16 16 16 16 16 16 16 16 16 16 16 16 16 16 15 15 15 15 15 15 15 15 15 15 15 15 15 15 15 15 15 15 15
15 15 15 15 15 15 15 16 16 16 16 16 16 16 16 15 15 15 15 15 15 15 15 15 15 15 15 15 15 15 15 15 15 15 15 15 15 15 15 15 15 14 14
15 15 15 15 15 15 15 15 16 15 15 15 15 15 15 15 15 15 15 15 15 15 15 15 15 15 15 15 15 15 15 15 15 15 15 15 14 14 14 14 14 14 14
15 15 15 15 15 15 15 15 15 15 15 15 15 15 15 15 15 15 15 15 15 15 15 15 15 15 15 15 15 15 15 15 15 15 15 14 14 14 14 14 14 14 14
14 15 14 14 14 15 15 15 15 15 15 15 15 15 15 15 15 15 15 15 15 15 15 15 15 14 14 14 14 14 14 14 14 14 14 14 14 14 14 14 14 14 14
14 14 14 14 14 14 14 15 15 15 15 15 15 15 15 15 15 15 15 15 15 14 15 14 14 14 14 14 14 14 14 14 14 14 14 14 14 14 14 14 13 13 13
14 14 14 14 14 14 14 14 14 14 14 14 14 14 14 14 14 14 14 14 14 14 14 14 14 14 14 14 14 14 14 14 14 14 14 14 14 13 13 13 13 13 13
14 14 14 14 14 14 14 14 14 14 14 14 14 14 14 14 14 14 14 14 14 14 14 14 14 14 13 13 13 13 13 13 13 13 13 13 13 13 13 13 13 13 13
13 13 13 13 13 13 13 13 13 14 14 13 13 13 14 14 14 14 14 14 14 14 13 13 13 13 13 13 13 13 13 13 13 13 13 13 13 13 13 12 12 12 12
13 13 13 13 13 13 13 13 13 13 13 13 13 13 13 13 13 13 13 13 13 13 13 13 13 13 13 13 13 12 13 13 12 13 12 12 12 12 12 12 12 12 12
13 13 13 13 13 13 13 13 13 13 13 13 13 13 13 13 13 13 13 13 13 13 13 12 12 12 12 12 12 12 12 12 12 12 12 12 12 12 12 11 11 11 11
13 13 13 12 12 12 12 12 12 12 12 12 12 12 12 12 12 12 12 12 12 12 12 12 12 12 12 12 12 12 12 12 11 11 11 11 11 11 11 11 11 11 11
13 13 12 12 12 12 12 12 12 12 12 12 12 12 12 12 12 12 12 12 12 11 11 11 11 11 11 11 11 11 11 11 11 11 11 11 11 11 11 11 10 10 10
13 12 12 12 12 12 12 12 11 11 11 11 11 11 11 11 11 11 11 11 11 11 11 11 11 11 11 11 11 11 11 11 11 11 10 10 10 10 10 10 10 10 10
13 12 12 12 12 11 11 11 11 11 11 11 11 11 11 11 11 10 10 10 10 10 10 10 10 10 10 10 10 10 10 10 10 10 10 10 10 10 10 10 10 10 10
12 12 12 12 11 11 11 11 11 10 10 10 10 10 10 10 10 10 10 10 10 10 10 10 10 10 10 10 10 10 10 10 10 10 9 9 9 9 9 9 9 9 9
12 12 11 11 11 11 10 10 10 10 10 10 10 10 10 10 10 10 10 9 9 9 9 9 9 9 9 9 9 9 9 9 9 9 9 9 9 9 8 8 8 8 8
12 12 11 11 11 11 10 10 10 10 10 10 9 9 9 9 9 9 9 9 9 9 9 8 8 8 8 8 8 8 8 8 8 8 8 8 8 8 8 8 8 8 8
11 11 11 11 11 10 10 10 10 9 9 9 9 9 9 9 9 9 9 8 8 8 8 8 8 8 8 7 7 6 6 6 6 7 7 7 7 7 7 7 7 7 7
11 11 11 11 11 10 10 10 10 10 9 9 9 9 9 8 8 8 8 8 8 8 8 7 7 7 7 7 7 6 6 5 5 5 6 7 7 7 7 7 7 7 7
11 11 11 10 10 10 10 10 9 9 9 9 9 8 8 8 8 8 8 8 7 7 7 7 7 7 7 6 6 6 6 5 5 4 4 6 6 6 6 6 6 6 6
10 10 10 10 10 10 10 9 9 9 9 9 8 8 8 8 7 7 7 7 7 7 7 7 6 6 6 6 6 5 5 5 4 4 4 4 5 6 6 6 6 6 5
Wind_Speed
4 4 8 10 11 11 11 11 11 11 11 11 11 11 11 11 10 10 9 9 8 8 8 7 7 8 7 7 7 7 7 7 7 7 6 6 5 5 5 5 4 4 4
6 6 10 11 12 12 12 11 11 11 11 12 11 11 11 10 10 10 9 8 8 8 7 7 7 7 7 7 7 7 7 7 7 6 6 6 5 4 4 3 3 2 3
7 7 10 12 13 12 12 12 11 11 11 12 11 11 11 10 10 9 8 8 7 7 7 7 7 6 6 6 6 6 6 6 6 6 6 5 4 4 3 3 2 2 2
7 8 10 13 13 12 12 12 11 11 11 11 11 11 10 10 9 9 8 8 7 7 6 6 6 6 6 6 6 5 5 5 6 6 5 4 3 3 2 2 2 1 1
7 8 11 13 13 13 12 12 11 11 11 10 10 10 10 10 9 9 8 8 8 7 7 6 6 6 6 6 5 5 5 6 6 6 5 4 3 3 2 2 1 1 1
6 8 10 13 13 12 12 12 11 11 10 10 10 10 10 10 10 9 9 8 8 8 8 7 7 6 6 6 5 5 5 6 6 6 5 4 3 3 3 2 1 1 1
6 7 9 12 12 12 12 11 11 10 10 10 10 10 9 9 9 9 9 8 8 8 8 7 7 6 6 6 5 5 5 5 6 5 4 4 3 3 3 2 2 2 2
6 6 8 11 11 11 11 10 10 10 9 9 9 9 9 9 9 8 8 8 8 7 7 7 7 6 6 6 6 5 5 5 4 4 3 3 3 3 3 2 2 2 3
6 6 6 8 10 10 10 10 10 10 9 9 9 9 9 9 8 8 8 8 7 7 7 7 6 6 6 6 6 6 5 5 5 3 3 3 4 4 4 3 3 3 3
5 5 6 7 9 9 9 10 10 10 9 9 9 9 9 9 8 8 8 8 7 7 7 6 6 6 6 6 6 6 6 5 5 4 3 3 4 4 4 4 4 4 4
5 4 5 6 7 8 8 9 10 10 9 10 9 10 9 9 8 8 8 8 7 7 7 7 7 7 7 7 6 6 6 5 4 4 3 4 5 5 5 5 5 5 5
7 4 4 5 6 7 7 8 8 8 9 9 9 9 9 8 8 7 7 8 7 7 7 8 8 7 7 6 6 6 5 5 4 4 4 6 6 6 6 6 6 6 6
7 5 4 5 5 6 5 6 6 7 7 8 8 8 8 8 7 7 7 7 7 7 7 7 8 7 6 5 5 5 5 4 4 4 5 5 6 7 7 7 7 7 7
7 6 5 5 5 6 6 5 5 5 5 5 6 7 7 5 5 5 5 5 6 6 6 6 5 6 6 6 5 4 5 4 4 5 5 6 6 7 8 8 8 8 8
7 6 5 5 6 6 6 4 4 4 4 5 6 6 6 4 3 3 4 5 5 5 5 4 4 4 4 5 5 4 4 4 4 5 5 6 7 8 9 9 9 9 9
8 7 6 6 6 6 5 4 4 4 5 6 5 5 6 5 4 3 3 3 4 5 4 4 3 3 3 3 4 4 4 4 4 4 5 6 7 8 9 10 10 11 11
8 8 7 7 6 6 6 5 4 5 5 5 4 5 6 6 5 4 3 3 3 4 5 4 4 3 3 3 4 4 3 4 4 4 4 5 6 8 9 10 11 12 13
8 8 8 7 7 6 6 5 5 5 5 4 5 5 5 5 5 5 3 2 3 4 4 2 3 3 3 3 3 4 3 3 3 4 4 5 5 6 8 10 12 13 14
9 9 8 7 7 6 6 5 5 5 4 4 4 4 4 5 5 5 3 2 4 4 3 2 2 2 2 4 3 3 3 3 3 4 4 4 5 6 7 9 12 13 14
8 8 8 7 7 6 5 4 4 3 3 3 3 3 4 4 4 4 3 3 3 2 2 2 2 2 2 3 3 4 3 3 3 3 4 4 5 6 7 8 9 10 13
7 8 8 8 8 7 4 4 3 2 2 1 1 2 3 3 3 3 2 2 2 2 2 2 2 2 3 3 2 3 3 3 2 3 3 3 4 6 7 8 8 9 10
10 9 9 9 9 8 6 4 3 3 2 1 1 2 2 3 3 3 2 1 1 1 2 2 2 1 2 3 2 2 4 4 3 3 3 3 4 5 6 9 9 9 10
10 11 11 10 9 8 6 5 4 3 2 1 1 1 0 1 2 2 2 2 1 1 0 1 1 1 1 2 2 1 1 2 5 3 3 4 4 4 5 7 8 10 11
10 10 10 10 9 8 8 7 7 5 4 3 2 1 1 1 1 2 2 2 1 1 0 1 0 0 0 1 1 0 1 2 2 4 4 3 5 6 6 7 8 9 10
8 8 8 9 8 8 8 9 8 5 3 2 2 2 1 0 0 1 1 1 1 1 1 0 0 0 0 1 1 1 1 1 2 3 6 6 6 5 5 6 6 7 9
5 7 8 9 8 8 8 8 8 7 5 5 3 3 2 1 0 0 1 1 1 1 1 1 1 1 1 1 2 2 2 2 2 2 5 8 9 6 6 5 5 6 7
Wind_Direction
181 180 157 140 132 128 122 118 115 111 110 111 109 108 108 108 109 108 104 101 101 101 98 99 97 90 87 87 85 86 84 81 78 77 76 73 73 76 84 84 82 77 82
152 155 147 138 131 127 121 117 114 110 108 107 107 107 107 106 105 106 106 104 101 98 95 95 93 89 84 82 84 82 81 79 76 72 70 63 58 61 70 79 82 88 87
133 137 137 132 129 126 122 118 114 110 106 103 102 102 102 101 100 101 102 101 97 94 93 93 89 84 81 79 77 79 77 74 72 68 65 54 43 46 53 73 78 79 82
127 127 132 131 129 126 124 120 116 113 108 105 102 101 100 100 99 97 96 92 89 87 87 87 85 82 78 75 73 72 72 72 69 68 64 49 33 30 38 65 73 67 55
116 121 131 131 129 127 124 120 116 113 110 106 103 100 98 94 92 90 86 81 80 79 78 81 81 79 75 72 72 70 67 66 65 64 58 42 23 20 23 45 50 37 28
116 118 130 132 130 127 125 121 116 113 109 106 103 99 95 90 84 81 79 76 76 74 73 72 71 70 70 68 69 67 65 63 61 59 46 26 8 359 4 14 18 8 353
124 115 127 133 132 129 126 122 118 113 111 108 103 99 95 90 85 81 77 73 71 71 69 66 64 61 61 60 59 57 58 60 60 53 35 16 1 355 352 354 359 350 326
126 114 125 134 132 130 128 124 120 116 112 108 104 100 95 91 87 83 78 72 69 67 64 60 56 54 53 52 47 44 50 58 57 45 24 9 352 340 335 337 339 330 323
110 105 100 115 122 126 127 123 119 115 111 107 103 97 93 90 86 80 76 71 66 63 57 52 51 48 44 43 40 39 44 47 47 30 11 352 342 332 331 333 328 325 330
101 102 99 100 104 106 113 118 116 113 108 103 97 92 89 84 79 75 70 68 63 58 53 46 45 43 39 40 39 37 37 38 28 14 359 341 335 325 318 317 316 309 307
125 113 109 104 101 105 106 109 106 104 101 95 90 87 81 73 70 66 66 65 59 54 50 46 45 42 40 38 35 33 34 30 18 5 346 337 329 321 319 316 309 304 302
164 154 133 123 115 107 100 94 89 88 88 86 85 84 80 75 70 67 65 61 55 52 50 46 44 39 37 31 23 24 25 18 16 355 341 339 326 317 316 317 313 307 303
167 159 149 135 123 113 103 96 88 86 84 83 85 88 86 75 67 61 56 48 45 45 43 37 36 32 31 25 19 19 17 16 7 350 338 338 331 324 318 317 314 308 305
162 167 155 141 131 120 112 104 99 92 86 83 85 90 89 75 62 55 52 44 42 41 39 34 31 24 23 18 14 13 11 8 357 348 344 348 339 330 328 325 320 313 310
170 171 164 150 144 132 118 113 102 98 97 96 91 88 94 90 79 64 55 48 41 41 40 33 28 23 16 9 6 5 357 351 347 345 342 341 336 330 325 326 324 318 312
178 174 163 155 148 135 130 124 117 110 107 101 95 94 96 96 90 76 59 49 40 38 38 37 27 20 5 359 355 353 342 339 340 343 342 340 338 334 328 324 324 321 314
177 169 165 160 147 142 136 130 121 119 114 104 100 100 97 97 94 85 69 50 35 36 38 37 28 27 12 1 349 341 343 341 339 338 335 335 334 336 333 327 323 322 317
169 167 168 163 152 147 139 130 122 118 114 109 108 104 99 97 98 88 75 49 35 40 39 34 18 16 6 355 340 332 332 334 339 337 338 335 332 330 330 330 326 323 321
174 168 165 159 155 149 134 121 115 110 108 111 111 107 105 100 98 93 81 57 49 47 34 18 23 18 356 346 332 330 331 331 323 334 332 336 331 325 325 328 327 324 320
169 164 162 154 149 138 123 109 101 99 98 99 108 114 113 106 102 95 83 61 56 53 24 18 11 8 350 331 327 327 319 316 315 321 314 328 332 324 323 323 325 324 321
162 163 165 158 155 149 144 144 141 149 147 136 119 123 121 116 112 104 89 66 59 56 28 12 5 7 1 347 355 337 321 308 311 305 312 317 321 322 325 323 320 316 315
175 173 170 168 167 168 166 156 143 137 143 154 140 116 124 123 123 119 110 114 90 70 37 23 21 8 0 9 23 4 343 334 337 320 323 316 312 321 323 320 316 313 310
182 180 180 178 173 169 154 132 110 90 81 96 123 162 151 137 126 120 122 117 119 115 77 4 35 53 343 350 31 85 31 300 318 314 306 309 313 316 313 313 309 307 306
193 183 177 175 172 167 157 157 156 164 174 191 175 176 172 143 138 130 134 133 140 140 148 288 23 177 160 319 331 325 206 230 294 313 308 304 304 306 304 307 305 301 301
189 178 174 169 170 167 166 167 165 167 167 149 143 148 155 159 155 149 149 140 151 170 203 260 329 287 200 246 275 283 292 288 242 268 302 313 312 293 292 291 291 294 294
176 171 167 168 173 171 170 171 173 171 163 156 165 171 183 209 233 195 152 144 168 187 214 231 234 245 251 248 254 251 244 259 273 265 285 304 308 304 299 290 288 286 291
Height
1496 1499 1501 1503 1506 1508 1509 1511 1513 1514 1515 1517 1518 1519 1520 1521 1521 1522 1523 1524 1524 1525 1525 1526 1526 1527 1527 1527 1528 1528 1529 1529 1529 1530 1530 1530 1530 1530 1530 1530 1530 1531 1531
1495 1498 1501 1503 1505 1508 1509 1511 1513 1514 1515 1516 1518 1519 1520 1521 1521 1522 1523 1524 1524 1525 1525 1526 1526 1527 1527 1527 1528 1528 1528 1529 1529 1529 1529 1530 1530 1530 1530 1530 1530 1530 1530
1494 1497 1500 1503 1505 1507 1509 1511 1512 1514 1515 1516 1517 1519 1519 1520 1521 1522 1523 1523 1524 1525 1525 1526 1526 1526 1527 1527 1527 1528 1528 1528 1528 1529 1529 1529 1529 1529 1529 1529 1529 1530 1530
1494 1497 1500 1503 1505 1507 1509 1511 1512 1514 1515 1516 1517 1518 1519 1520 1521 1522 1522 1523 1524 1524 1525 1525 1526 1526 1526 1527 1527 1527 1527 1528 1528 1528 1528 1528 1528 1528 1528 1528 1528 1528 1529
1494 1497 1500 1502 1505 1507 1509 1510 1512 1514 1515 1516 1517 1518 1519 1520 1520 1521 1522 1523 1523 1524 1524 1525 1525 1525 1526 1526 1526 1526 1527 1527 1527 1527 1527 1527 1527 1527 1527 1527 1527 1527 1527
1494 1497 1500 1502 1504 1506 1508 1510 1512 1513 1514 1516 1517 1517 1518 1519 1520 1520 1521 1522 1522 1523 1523 1524 1524 1524 1525 1525 1525 1525 1525 1525 1525 1526 1526 1526 1526 1526 1526 1526 1526 1526 1526
1494 1497 1500 1502 1504 1506 1508 1510 1511 1513 1514 1515 1516 1517 1517 1518 1519 1519 1520 1521 1521 1522 1522 1523 1523 1523 1523 1524 1524 1524 1524 1524 1524 1524 1524 1525 1525 1525 1525 1525 1525 1524 1524
1495 1497 1499 1502 1504 1506 1508 1509 1511 1512 1513 1514 1515 1516 1517 1517 1518 1518 1519 1519 1520 1520 1521 1521 1521 1522 1522 1522 1522 1522 1522 1522 1522 1523 1523 1523 1523 1523 1523 1523 1523 1522 1522
1495 1497 1499 1501 1503 1505 1507 1509 1510 1511 1512 1513 1514 1515 1516 1516 1517 1517 1518 1518 1519 1519 1519 1520 1520 1520 1520 1521 1521 1521 1521 1521 1521 1521 1521 1521 1521 1521 1521 1521 1520 1520 1520
1494 1496 1498 1500 1502 1504 1506 1508 1509 1510 1512 1513 1513 1514 1515 1515 1516 1516 1517 1517 1518 1518 1518 1518 1518 1518 1519 1519 1519 1519 1519 1519 1519 1519 1519 1519 1519 1519 1519 1518 1518 1518 1517
1493 1495 1498 1500 1502 1504 1505 1507 1508 1509 1511 1512 1512 1513 1514 1514 1515 1515 1516 1516 1516 1516 1516 1517 1517 1517 1517 1517 1517 1517 1517 1517 1517 1517 1517 1517 1517 1517 1516 1516 1515 1515 1515
1491 1494 1496 1498 1501 1502 1504 1506 1507 1508 1509 1510 1511 1512 1512 1513 1514 1514 1514 1515 1515 1515 1515 1515 1515 1515 1515 1515 1515 1515 1515 1515 1515 1515 1515 1515 1514 1514 1514 1513 1513 1513 1512
1490 1492 1495 1497 1499 1501 1503 1504 1506 1507 1508 1509 1510 1511 1511 1512 1512 1513 1513 1513 1513 1513 1513 1513 1513 1513 1513 1513 1513 1513 1513 1513 1513 1513 1513 1512 1512 1512 1511 1511 1510 1510 1509
1488 1491 1493 1496 1498 1500 1502 1503 1504 1506 1507 1508 1509 1509 1510 1510 1511 1511 1512 1512 1512 1512 1512 1512 1512 1512 1512 1512 1511 1511 1511 1511 1510 1510 1510 1510 1509 1509 1508 1508 1507 1507 1506
1487 1489 1492 1494 1496 1498 1500 1502 1503 1504 1505 1506 1507 1508 1509 1509 1510 1510 1510 1510 1510 1510 1510 1510 1510 1510 1510 1509 1509 1509 1509 1508 1508 1508 1507 1507 1506 1506 1505 1505 1504 1504 1503
1485 1488 1490 1492 1495 1497 1499 1500 1502 1503 1504 1505 1506 1507 1507 1508 1508 1509 1509 1509 1509 1509 1508 1508 1508 1508 1507 1507 1507 1507 1506 1506 1505 1505 1505 1504 1503 1503 1502 1501 1501 1500 1499
1483 1486 1488 1491 1493 1495 1497 1499 1500 1502 1503 1504 1505 1505 1506 1507 1507 1507 1507 1507 1507 1507 1507 1506 1506 1506 1505 1505 1505 1504 1504 1503 1503 1502 1502 1501 1500 1499 1499 1498 1497 1496 1495
1481 1483 1486 1489 1491 1494 1496 1497 1499 1500 1501 1502 1503 1504 1505 1505 1506 1506 1506 1506 1506 1505 1505 1505 1504 1504 1503 1503 1502 1501 1501 1500 1500 1499 1498 1498 1497 1496 1495 1494 1493 1492 1490
1478 1481 1484 1486 1489 1491 1494 1496 1497 1499 1500 1501 1502 1503 1503 1504 1504 1504 1504 1504 1504 1504 1503 1503 1502 1502 1501 1500 1499 1499 1498 1497 1497 1496 1495 1494 1494 1493 1491 1490 1489 1487 1486
1476 1479 1481 1484 1487 1489 1491 1493 1495 1497 1498 1499 1500 1501 1502 1502 1503 1503 1503 1503 1503 1502 1502 1501 1501 1500 1499 1498 1497 1496 1495 1494 1494 1493 1492 1491 1490 1489 1488 1486 1485 1483 1482
1473 1475 1478 1481 1484 1486 1488 1490 1492 1494 1496 1497 1498 1499 1500 1501 1501 1501 1501 1501 1501 1501 1500 1499 1499 1498 1497 1496 1494 1492 1491 1491 1490 1490 1489 1488 1487 1486 1484 1482 1480 1479 1477
1469 1472 1475 1478 1480 1483 1486 1488 1491 1492 1494 1495 1496 1497 1498 1498 1499 1500 1500 1500 1499 1499 1498 1498 1497 1496 1495 1494 1492 1490 1489 1488 1487 1486 1486 1485 1483 1482 1480 1478 1476 1474 1472
1465 1468 1471 1474 1477 1480 1483 1486 1488 1490 1491 1493 1494 1495 1496 1496 1497 1497 1498 1498 1498 1497 1497 1496 1495 1494 1493 1493 1492 1491 1489 1487 1484 1482 1482 1481 1480 1478 1476 1474 1472 1470 1468
1461 1464 1468 1471 1474 1477 1480 1482 1484 1486 1487 1489 1491 1492 1494 1494 1495 1495 1496 1496 1496 1495 1495 1494 1494 1493 1492 1491 1490 1490 1489 1487 1485 1479 1478 1477 1476 1474 1472 1470 1467 1465 1463
1457 1461 1464 1468 1471 1474 1477 1479 1482 1484 1485 1487 1489 1490 1491 1492 1493 1493 1494 1494 1494 1493 1493 1492 1492 1491 1490 1489 1488 1487 1486 1485 1483 1480 1474 1472 1470 1469 1467 1465 1463 1460 1458
1454 1457 1461 1464 1467 1470 1473 1476 1478 1480 1482 1484 1486 1487 1488 1489 1490 1491 1491 1491 1491 1491 1491 1490 1489 1488 1488 1487 1486 1484 1483 1482 1480 1478 1473 1468 1465 1463 1462 1460 1458 1455 1453